Year,Month,Day,Hour,Minute,Value (Times are PST for temperature in C)
2010,02,20,00,00,3.20
2010,02,20,00,01,3.20
2010,02,20,00,02,3.20
2010,02,20,00,03,3.20
2010,02,20,00,04,3.20
2010,02,20,00,05,3.10
2010,02,20,00,06,3.10
2010,02,20,00,07,3.10
2010,02,20,00,08,3.10
2010,02,20,00,09,3.10
2010,02,20,00,10,3.10
2010,02,20,00,11,3.00
2010,02,20,00,12,3.00
2010,02,20,00,13,2.90
2010,02,20,00,14,2.90
2010,02,20,00,15,2.90
2010,02,20,00,16,2.80
2010,02,20,00,17,2.80
2010,02,20,00,18,2.80
2010,02,20,00,19,2.70
2010,02,20,00,20,2.70
2010,02,20,00,21,2.60
2010,02,20,00,22,2.60
2010,02,20,00,23,2.60
2010,02,20,00,24,2.60
2010,02,20,00,25,2.60
2010,02,20,00,26,2.60
2010,02,20,00,27,2.60
2010,02,20,00,28,2.60
2010,02,20,00,29,2.60
2010,02,20,00,30,2.60
2010,02,20,00,31,2.60
2010,02,20,00,32,2.70
2010,02,20,00,33,2.70
2010,02,20,00,34,2.70
2010,02,20,00,35,2.70
2010,02,20,00,36,2.70
2010,02,20,00,37,2.80
2010,02,20,00,38,2.80
2010,02,20,00,39,2.90
2010,02,20,00,40,2.90
2010,02,20,00,41,2.90
2010,02,20,00,42,3.00
2010,02,20,00,43,3.10
2010,02,20,00,44,3.20
2010,02,20,00,45,3.20
2010,02,20,00,46,3.20
2010,02,20,00,47,3.30
2010,02,20,00,48,3.30
2010,02,20,00,49,3.30
2010,02,20,00,50,3.40
2010,02,20,00,51,3.40
2010,02,20,00,52,3.40
2010,02,20,00,53,3.50
2010,02,20,00,54,3.50
2010,02,20,00,55,3.50
2010,02,20,00,56,3.60
2010,02,20,00,57,3.60
2010,02,20,00,58,3.60
2010,02,20,00,59,3.60
2010,02,20,01,00,3.60
2010,02,20,01,01,3.60
2010,02,20,01,02,3.60
2010,02,20,01,03,3.60
2010,02,20,01,04,3.60
2010,02,20,01,05,3.60
2010,02,20,01,06,3.60
2010,02,20,01,07,3.60
2010,02,20,01,08,3.60
2010,02,20,01,09,3.50
2010,02,20,01,10,3.50
2010,02,20,01,11,3.50
2010,02,20,01,12,3.50
2010,02,20,01,13,3.50
2010,02,20,01,14,3.50
2010,02,20,01,15,3.50
2010,02,20,01,16,3.50
2010,02,20,01,17,3.50
2010,02,20,01,18,3.50
2010,02,20,01,19,3.50
2010,02,20,01,20,3.50
2010,02,20,01,21,3.50
2010,02,20,01,22,3.50
2010,02,20,01,23,3.50
2010,02,20,01,24,3.60
2010,02,20,01,25,3.60
2010,02,20,01,26,3.60
2010,02,20,01,27,3.60
2010,02,20,01,28,3.60
2010,02,20,01,29,3.60
2010,02,20,01,30,3.60
2010,02,20,01,31,3.60
2010,02,20,01,32,3.60
2010,02,20,01,33,3.60
2010,02,20,01,34,3.70
2010,02,20,01,35,3.60
2010,02,20,01,36,3.60
2010,02,20,01,37,3.60
2010,02,20,01,38,3.60
2010,02,20,01,39,3.60
2010,02,20,01,40,3.50
2010,02,20,01,41,3.50
2010,02,20,01,42,3.50
2010,02,20,01,43,3.50
2010,02,20,01,44,3.50
2010,02,20,01,45,3.50
2010,02,20,01,46,3.50
2010,02,20,01,47,3.50
2010,02,20,01,48,3.50
2010,02,20,01,49,3.50
2010,02,20,01,50,3.50
2010,02,20,01,51,3.50
2010,02,20,01,52,3.60
2010,02,20,01,53,3.60
2010,02,20,01,54,3.60
2010,02,20,01,55,3.60
2010,02,20,01,56,3.60
2010,02,20,01,57,3.60
2010,02,20,01,58,3.70
2010,02,20,01,59,3.70
2010,02,20,02,00,3.70
2010,02,20,02,01,3.70
2010,02,20,02,02,3.70
2010,02,20,02,03,3.70
2010,02,20,02,04,3.70
2010,02,20,02,05,3.70
2010,02,20,02,06,3.70
2010,02,20,02,07,3.70
2010,02,20,02,08,3.70
2010,02,20,02,09,3.70
2010,02,20,02,10,3.70
2010,02,20,02,11,3.70
2010,02,20,02,12,3.70
2010,02,20,02,13,3.70
2010,02,20,02,14,3.70
2010,02,20,02,15,3.70
2010,02,20,02,16,3.70
2010,02,20,02,17,3.70
2010,02,20,02,18,3.70
2010,02,20,02,19,3.70
2010,02,20,02,20,3.70
2010,02,20,02,21,3.60
2010,02,20,02,22,3.60
2010,02,20,02,23,3.60
2010,02,20,02,24,3.60
2010,02,20,02,25,3.60
2010,02,20,02,26,3.60
2010,02,20,02,27,3.50
2010,02,20,02,28,3.50
2010,02,20,02,29,3.50
2010,02,20,02,30,3.50
2010,02,20,02,31,3.50
2010,02,20,02,32,3.40
2010,02,20,02,33,3.40
2010,02,20,02,34,3.40
2010,02,20,02,35,3.40
2010,02,20,02,36,3.40
2010,02,20,02,37,3.40
2010,02,20,02,38,3.40
2010,02,20,02,39,3.40
2010,02,20,02,40,3.40
2010,02,20,02,41,3.30
2010,02,20,02,42,3.30
2010,02,20,02,43,3.30
2010,02,20,02,44,3.30
2010,02,20,02,45,3.30
2010,02,20,02,46,3.30
2010,02,20,02,47,3.30
2010,02,20,02,48,3.30
2010,02,20,02,49,3.30
2010,02,20,02,50,3.30
2010,02,20,02,51,3.30
2010,02,20,02,52,3.40
2010,02,20,02,53,3.40
2010,02,20,02,54,3.40
2010,02,20,02,55,3.40
2010,02,20,02,56,3.50
2010,02,20,02,57,3.50
2010,02,20,02,58,3.60
2010,02,20,02,59,3.60
2010,02,20,03,00,3.60
2010,02,20,03,01,3.70
2010,02,20,03,02,3.70
2010,02,20,03,03,3.70
2010,02,20,03,04,3.70
2010,02,20,03,05,3.70
2010,02,20,03,06,3.70
2010,02,20,03,07,3.70
2010,02,20,03,08,3.70
2010,02,20,03,09,3.70
2010,02,20,03,10,3.70
2010,02,20,03,11,3.70
2010,02,20,03,12,3.70
2010,02,20,03,13,3.70
2010,02,20,03,14,3.70
2010,02,20,03,15,3.70
2010,02,20,03,16,3.70
2010,02,20,03,17,3.60
2010,02,20,03,18,3.60
2010,02,20,03,19,3.60
2010,02,20,03,20,3.60
2010,02,20,03,21,3.60
2010,02,20,03,22,3.50
2010,02,20,03,23,3.50
2010,02,20,03,24,3.50
2010,02,20,03,25,3.50
2010,02,20,03,26,3.50
2010,02,20,03,27,3.40
2010,02,20,03,28,3.40
2010,02,20,03,29,3.40
2010,02,20,03,30,3.40
2010,02,20,03,31,3.40
2010,02,20,03,32,3.40
2010,02,20,03,33,3.40
2010,02,20,03,34,3.40
2010,02,20,03,35,3.40
2010,02,20,03,36,3.40
2010,02,20,03,37,3.40
2010,02,20,03,38,3.40
2010,02,20,03,39,3.40
2010,02,20,03,40,3.40
2010,02,20,03,41,3.40
2010,02,20,03,42,3.40
2010,02,20,03,43,3.40
2010,02,20,03,44,3.40
2010,02,20,03,45,3.40
2010,02,20,03,46,3.40
2010,02,20,03,47,3.50
2010,02,20,03,48,3.50
2010,02,20,03,49,3.50
2010,02,20,03,50,3.50
2010,02,20,03,51,3.50
2010,02,20,03,52,3.50
2010,02,20,03,53,3.50
2010,02,20,03,54,3.50
2010,02,20,03,55,3.50
2010,02,20,03,56,3.50
2010,02,20,03,57,3.50
2010,02,20,03,58,3.60
2010,02,20,03,59,3.60
2010,02,20,04,00,3.70
2010,02,20,04,01,3.70
2010,02,20,04,02,3.70
2010,02,20,04,03,3.70
2010,02,20,04,04,3.80
2010,02,20,04,05,3.80
2010,02,20,04,06,3.80
2010,02,20,04,07,3.80
2010,02,20,04,08,3.80
2010,02,20,04,09,3.70
2010,02,20,04,10,3.70
2010,02,20,04,11,3.70
2010,02,20,04,12,3.70
2010,02,20,04,13,3.80
2010,02,20,04,14,3.80
2010,02,20,04,15,3.80
2010,02,20,04,16,3.80
2010,02,20,04,17,3.80
2010,02,20,04,18,3.90
2010,02,20,04,19,3.90
2010,02,20,04,20,3.90
2010,02,20,04,21,4.00
2010,02,20,04,22,4.00
2010,02,20,04,23,4.00
2010,02,20,04,24,4.10
2010,02,20,04,25,4.10
2010,02,20,04,26,4.10
2010,02,20,04,27,4.10
2010,02,20,04,28,4.10
2010,02,20,04,29,4.10
2010,02,20,04,30,4.10
2010,02,20,04,31,4.10
2010,02,20,04,32,4.00
2010,02,20,04,33,4.00
2010,02,20,04,34,3.90
2010,02,20,04,35,3.90
2010,02,20,04,36,3.80
2010,02,20,04,37,3.80
2010,02,20,04,38,3.80
2010,02,20,04,39,3.70
2010,02,20,04,40,3.70
2010,02,20,04,41,3.60
2010,02,20,04,42,3.60
2010,02,20,04,43,3.50
2010,02,20,04,44,3.50
2010,02,20,04,45,3.50
2010,02,20,04,46,3.50
2010,02,20,04,47,3.50
2010,02,20,04,48,3.50
2010,02,20,04,49,3.50
2010,02,20,04,50,3.50
2010,02,20,04,51,3.50
2010,02,20,04,52,3.40
2010,02,20,04,53,3.40
2010,02,20,04,54,3.40
2010,02,20,04,55,3.30
2010,02,20,04,56,3.30
2010,02,20,04,57,3.30
2010,02,20,04,58,3.30
2010,02,20,04,59,3.30
2010,02,20,05,00,3.30
2010,02,20,05,01,3.30
2010,02,20,05,02,3.30
2010,02,20,05,03,3.20
2010,02,20,05,04,3.20
2010,02,20,05,05,3.20
2010,02,20,05,06,3.20
2010,02,20,05,07,3.20
2010,02,20,05,08,3.20
2010,02,20,05,09,3.20
2010,02,20,05,10,3.20
2010,02,20,05,11,3.20
2010,02,20,05,12,3.20
2010,02,20,05,13,3.20
2010,02,20,05,14,3.20
2010,02,20,05,15,3.20
2010,02,20,05,16,3.20
2010,02,20,05,17,3.20
2010,02,20,05,18,3.20
2010,02,20,05,19,3.20
2010,02,20,05,20,3.20
2010,02,20,05,21,3.20
2010,02,20,05,22,3.20
2010,02,20,05,23,3.20
2010,02,20,05,24,3.20
2010,02,20,05,25,3.20
2010,02,20,05,26,3.10
2010,02,20,05,27,3.10
2010,02,20,05,28,3.10
2010,02,20,05,29,3.00
2010,02,20,05,30,3.00
2010,02,20,05,31,2.90
2010,02,20,05,32,2.90
2010,02,20,05,33,2.90
2010,02,20,05,34,2.90
2010,02,20,05,35,2.90
2010,02,20,05,36,2.90
2010,02,20,05,37,2.90
2010,02,20,05,38,2.90
2010,02,20,05,39,2.90
2010,02,20,05,40,2.90
2010,02,20,05,41,2.90
2010,02,20,05,42,2.90
2010,02,20,05,43,3.00
2010,02,20,05,44,3.00
2010,02,20,05,45,3.10
2010,02,20,05,46,3.20
2010,02,20,05,47,3.30
2010,02,20,05,48,3.30
2010,02,20,05,49,3.40
2010,02,20,05,50,3.50
2010,02,20,05,51,3.50
2010,02,20,05,52,3.50
2010,02,20,05,53,3.60
2010,02,20,05,54,3.60
2010,02,20,05,55,3.60
2010,02,20,05,56,3.70
2010,02,20,05,57,3.70
2010,02,20,05,58,3.70
2010,02,20,05,59,3.80
2010,02,20,06,00,3.90
2010,02,20,06,01,4.00
2010,02,20,06,02,4.10
2010,02,20,06,03,4.20
2010,02,20,06,04,4.30
2010,02,20,06,05,4.40
2010,02,20,06,06,4.50
2010,02,20,06,07,4.60
2010,02,20,06,08,4.70
2010,02,20,06,09,4.80
2010,02,20,06,10,4.90
2010,02,20,06,11,4.90
2010,02,20,06,12,4.90
2010,02,20,06,13,5.00
2010,02,20,06,14,5.00
2010,02,20,06,15,5.10
2010,02,20,06,16,5.10
2010,02,20,06,17,5.00
2010,02,20,06,18,5.00
2010,02,20,06,19,5.00
2010,02,20,06,20,5.00
2010,02,20,06,21,5.00
2010,02,20,06,22,5.00
2010,02,20,06,23,5.00
2010,02,20,06,24,5.00
2010,02,20,06,25,4.90
2010,02,20,06,26,4.90
2010,02,20,06,27,4.90
2010,02,20,06,28,4.90
2010,02,20,06,29,4.90
2010,02,20,06,30,4.90
2010,02,20,06,31,4.90
2010,02,20,06,32,4.90
2010,02,20,06,33,4.80
2010,02,20,06,34,4.80
2010,02,20,06,35,4.80
2010,02,20,06,36,4.80
2010,02,20,06,37,4.80
2010,02,20,06,38,4.80
2010,02,20,06,39,4.70
2010,02,20,06,40,4.70
2010,02,20,06,41,4.70
2010,02,20,06,42,4.70
2010,02,20,06,43,4.70
2010,02,20,06,44,4.60
2010,02,20,06,45,4.60
2010,02,20,06,46,4.60
2010,02,20,06,47,4.50
2010,02,20,06,48,4.50
2010,02,20,06,49,4.40
2010,02,20,06,50,4.40
2010,02,20,06,51,4.30
2010,02,20,06,52,4.30
2010,02,20,06,53,4.20
2010,02,20,06,54,4.20
2010,02,20,06,55,4.10
2010,02,20,06,56,4.10
2010,02,20,06,57,4.10
2010,02,20,06,58,4.00
2010,02,20,06,59,3.90
2010,02,20,07,00,3.90
2010,02,20,07,01,3.90
2010,02,20,07,02,3.80
2010,02,20,07,03,3.80
2010,02,20,07,04,3.80
2010,02,20,07,05,3.80
2010,02,20,07,06,3.90
2010,02,20,07,07,3.90
2010,02,20,07,08,3.90
2010,02,20,07,09,4.00
2010,02,20,07,10,4.00
2010,02,20,07,11,4.00
2010,02,20,07,12,4.00
2010,02,20,07,13,4.00
2010,02,20,07,14,4.00
2010,02,20,07,15,4.00
2010,02,20,07,16,3.90
2010,02,20,07,17,3.90
2010,02,20,07,18,3.90
2010,02,20,07,19,3.80
2010,02,20,07,20,3.80
2010,02,20,07,21,3.80
2010,02,20,07,22,3.70
2010,02,20,07,23,3.70
2010,02,20,07,24,3.70
2010,02,20,07,25,3.60
2010,02,20,07,26,3.60
2010,02,20,07,27,3.60
2010,02,20,07,28,3.60
2010,02,20,07,29,3.60
2010,02,20,07,30,3.60
2010,02,20,07,31,3.60
2010,02,20,07,32,3.60
2010,02,20,07,33,3.60
2010,02,20,07,34,3.60
2010,02,20,07,35,3.50
2010,02,20,07,36,3.50
2010,02,20,07,37,3.50
2010,02,20,07,38,3.40
2010,02,20,07,39,3.40
2010,02,20,07,40,3.40
2010,02,20,07,41,3.40
2010,02,20,07,42,3.50
2010,02,20,07,43,3.50
2010,02,20,07,44,3.50
2010,02,20,07,45,3.60
2010,02,20,07,46,3.60
2010,02,20,07,47,3.70
2010,02,20,07,48,3.80
2010,02,20,07,49,3.90
2010,02,20,07,50,4.00
2010,02,20,07,51,4.10
2010,02,20,07,52,4.20
2010,02,20,07,53,4.30
2010,02,20,07,54,4.30
2010,02,20,07,55,4.40
2010,02,20,07,56,4.40
2010,02,20,07,57,4.50
2010,02,20,07,58,4.60
2010,02,20,07,59,4.60
2010,02,20,08,00,4.60
2010,02,20,08,01,4.70
2010,02,20,08,02,4.70
2010,02,20,08,03,4.80
2010,02,20,08,04,4.80
2010,02,20,08,05,4.90
2010,02,20,08,06,4.90
2010,02,20,08,07,4.90
2010,02,20,08,08,5.00
2010,02,20,08,09,5.00
2010,02,20,08,10,5.10
2010,02,20,08,11,5.10
2010,02,20,08,12,5.20
2010,02,20,08,13,5.20
2010,02,20,08,14,5.20
2010,02,20,08,15,5.30
2010,02,20,08,16,5.30
2010,02,20,08,17,5.40
2010,02,20,08,18,5.50
2010,02,20,08,19,5.50
2010,02,20,08,20,5.60
2010,02,20,08,21,5.70
2010,02,20,08,22,5.70
2010,02,20,08,23,5.70
2010,02,20,08,24,5.80
2010,02,20,08,25,5.80
2010,02,20,08,26,5.90
2010,02,20,08,27,5.90
2010,02,20,08,28,5.90
2010,02,20,08,29,5.90
2010,02,20,08,30,6.00
2010,02,20,08,31,6.00
2010,02,20,08,32,6.00
2010,02,20,08,33,6.10
2010,02,20,08,34,6.10
2010,02,20,08,35,6.10
2010,02,20,08,36,6.20
2010,02,20,08,37,6.20
2010,02,20,08,38,6.20
2010,02,20,08,39,6.30
2010,02,20,08,40,6.30
2010,02,20,08,41,6.40
2010,02,20,08,42,6.50
2010,02,20,08,43,6.50
2010,02,20,08,44,6.60
2010,02,20,08,45,6.70
2010,02,20,08,46,6.70
2010,02,20,08,47,6.80
2010,02,20,08,48,6.90
2010,02,20,08,49,6.90
2010,02,20,08,50,7.00
2010,02,20,08,51,7.00
2010,02,20,08,52,7.10
2010,02,20,08,53,7.10
2010,02,20,08,54,7.10
2010,02,20,08,55,7.10
2010,02,20,08,56,7.20
2010,02,20,08,57,7.10
2010,02,20,08,58,7.10
2010,02,20,08,59,7.10
2010,02,20,09,00,7.10
2010,02,20,09,01,7.10
2010,02,20,09,02,7.10
2010,02,20,09,03,7.10
2010,02,20,09,04,7.10
2010,02,20,09,05,7.10
2010,02,20,09,06,7.10
2010,02,20,09,07,7.10
2010,02,20,09,08,7.10
2010,02,20,09,09,7.10
2010,02,20,09,10,7.10
2010,02,20,09,11,7.10
2010,02,20,09,12,7.20
2010,02,20,09,13,7.20
2010,02,20,09,14,7.20
2010,02,20,09,15,7.20
2010,02,20,09,16,7.20
2010,02,20,09,17,7.20
2010,02,20,09,18,7.30
2010,02,20,09,19,7.30
2010,02,20,09,20,7.30
2010,02,20,09,21,7.30
2010,02,20,09,22,7.30
2010,02,20,09,23,7.30
2010,02,20,09,24,7.30
2010,02,20,09,25,7.30
2010,02,20,09,26,7.30
2010,02,20,09,27,7.30
2010,02,20,09,28,7.30
2010,02,20,09,29,7.30
2010,02,20,09,30,7.30
2010,02,20,09,31,7.30
2010,02,20,09,32,7.30
2010,02,20,09,33,7.30
2010,02,20,09,34,7.30
2010,02,20,09,35,7.30
2010,02,20,09,36,7.30
2010,02,20,09,37,7.30
2010,02,20,09,38,7.40
2010,02,20,09,39,7.40
2010,02,20,09,40,7.50
2010,02,20,09,41,7.50
2010,02,20,09,42,7.60
2010,02,20,09,43,7.60
2010,02,20,09,44,7.70
2010,02,20,09,45,7.70
2010,02,20,09,46,7.80
2010,02,20,09,47,7.80
2010,02,20,09,48,7.90
2010,02,20,09,49,7.90
2010,02,20,09,50,7.90
2010,02,20,09,51,7.90
2010,02,20,09,52,7.90
2010,02,20,09,53,7.90
2010,02,20,09,54,8.00
2010,02,20,09,55,8.00
2010,02,20,09,56,8.00
2010,02,20,09,57,8.00
2010,02,20,09,58,8.00
2010,02,20,09,59,8.10
2010,02,20,10,00,8.10
2010,02,20,10,01,8.10
2010,02,20,10,02,8.10
2010,02,20,10,03,8.10
2010,02,20,10,04,8.10
2010,02,20,10,05,8.10
2010,02,20,10,06,8.10
2010,02,20,10,07,8.10
2010,02,20,10,08,8.10
2010,02,20,10,09,8.10
2010,02,20,10,10,8.20
2010,02,20,10,11,8.20
2010,02,20,10,12,8.30
2010,02,20,10,13,8.30
2010,02,20,10,14,8.30
2010,02,20,10,15,8.30
2010,02,20,10,16,8.30
2010,02,20,10,17,8.30
2010,02,20,10,18,8.30
2010,02,20,10,19,8.30
2010,02,20,10,20,8.30
2010,02,20,10,21,8.30
2010,02,20,10,22,8.30
2010,02,20,10,23,8.30
2010,02,20,10,24,8.30
2010,02,20,10,25,8.30
2010,02,20,10,26,8.30
2010,02,20,10,27,8.40
2010,02,20,10,28,8.40
2010,02,20,10,29,8.40
2010,02,20,10,30,8.50
2010,02,20,10,31,8.50
2010,02,20,10,32,8.50
2010,02,20,10,33,8.60
2010,02,20,10,34,8.60
2010,02,20,10,35,8.60
2010,02,20,10,36,8.60
2010,02,20,10,37,8.70
2010,02,20,10,38,8.70
2010,02,20,10,39,8.70
2010,02,20,10,40,8.80
2010,02,20,10,41,8.80
2010,02,20,10,42,8.90
2010,02,20,10,43,8.90
2010,02,20,10,44,8.90
2010,02,20,10,45,8.90
2010,02,20,10,46,8.90
2010,02,20,10,47,8.90
2010,02,20,10,48,9.00
2010,02,20,10,49,9.00
2010,02,20,10,50,9.00
2010,02,20,10,51,9.10
2010,02,20,10,52,9.10
2010,02,20,10,53,9.10
2010,02,20,10,54,9.20
2010,02,20,10,55,9.20
2010,02,20,10,56,9.20
2010,02,20,10,57,9.30
2010,02,20,10,58,9.30
2010,02,20,10,59,9.30
2010,02,20,11,00,9.30
2010,02,20,11,01,9.30
2010,02,20,11,02,9.30
2010,02,20,11,03,9.30
2010,02,20,11,04,9.20
2010,02,20,11,05,9.20
2010,02,20,11,06,9.20
2010,02,20,11,07,9.20
2010,02,20,11,08,9.20
2010,02,20,11,09,9.10
2010,02,20,11,10,9.10
2010,02,20,11,11,9.20
2010,02,20,11,12,9.20
2010,02,20,11,13,9.30
2010,02,20,11,14,9.40
2010,02,20,11,15,9.50
2010,02,20,11,16,9.50
2010,02,20,11,17,9.60
2010,02,20,11,18,9.60
2010,02,20,11,19,9.60
2010,02,20,11,20,9.60
2010,02,20,11,21,9.60
2010,02,20,11,22,9.60
2010,02,20,11,23,9.60
2010,02,20,11,24,9.60
2010,02,20,11,25,9.70
2010,02,20,11,26,9.70
2010,02,20,11,27,9.70
2010,02,20,11,28,9.70
2010,02,20,11,29,9.70
2010,02,20,11,30,9.60
2010,02,20,11,31,9.60
2010,02,20,11,32,9.70
2010,02,20,11,33,9.70
2010,02,20,11,34,9.70
2010,02,20,11,35,9.70
2010,02,20,11,36,9.70
2010,02,20,11,37,9.70
2010,02,20,11,38,9.60
2010,02,20,11,39,9.60
2010,02,20,11,40,9.60
2010,02,20,11,41,9.60
2010,02,20,11,42,9.50
2010,02,20,11,43,9.50
2010,02,20,11,44,9.50
2010,02,20,11,45,9.50
2010,02,20,11,46,9.60
2010,02,20,11,47,9.60
2010,02,20,11,48,9.50
2010,02,20,11,49,9.60
2010,02,20,11,50,9.50
2010,02,20,11,51,9.50
2010,02,20,11,52,9.50
2010,02,20,11,53,9.40
2010,02,20,11,54,9.40
2010,02,20,11,55,9.40
2010,02,20,11,56,9.40
2010,02,20,11,57,9.40
2010,02,20,11,58,9.40
2010,02,20,11,59,9.30
2010,02,20,12,00,9.30
2010,02,20,12,01,9.40
2010,02,20,12,02,9.40
2010,02,20,12,03,9.30
2010,02,20,12,04,9.30
2010,02,20,12,05,9.40
2010,02,20,12,06,9.40
2010,02,20,12,07,9.40
2010,02,20,12,08,9.50
2010,02,20,12,09,9.60
2010,02,20,12,10,9.60
2010,02,20,12,11,9.70
2010,02,20,12,12,9.70
2010,02,20,12,13,9.80
2010,02,20,12,14,9.80
2010,02,20,12,15,9.90
2010,02,20,12,16,9.90
2010,02,20,12,17,10.00
2010,02,20,12,18,10.00
2010,02,20,12,19,10.10
2010,02,20,12,20,10.10
2010,02,20,12,21,10.00
2010,02,20,12,22,10.00
2010,02,20,12,23,10.00
2010,02,20,12,24,10.10
2010,02,20,12,25,10.10
2010,02,20,12,26,10.10
2010,02,20,12,27,10.00
2010,02,20,12,28,9.90
2010,02,20,12,29,9.80
2010,02,20,12,30,9.70
2010,02,20,12,31,9.70
2010,02,20,12,32,9.70
2010,02,20,12,33,9.60
2010,02,20,12,34,9.60
2010,02,20,12,35,9.60
2010,02,20,12,36,9.60
2010,02,20,12,37,9.70
2010,02,20,12,38,9.70
2010,02,20,12,39,9.70
2010,02,20,12,40,9.70
2010,02,20,12,41,9.70
2010,02,20,12,42,9.70
2010,02,20,12,43,9.70
2010,02,20,12,44,9.70
2010,02,20,12,45,9.70
2010,02,20,12,46,9.70
2010,02,20,12,47,9.70
2010,02,20,12,48,9.60
2010,02,20,12,49,9.60
2010,02,20,12,50,9.60
2010,02,20,12,51,9.70
2010,02,20,12,52,9.70
2010,02,20,12,53,9.70
2010,02,20,12,54,9.70
2010,02,20,12,55,9.60
2010,02,20,12,56,9.60
2010,02,20,12,57,9.60
2010,02,20,12,58,9.60
2010,02,20,12,59,9.60
2010,02,20,13,00,9.70
2010,02,20,13,01,9.70
2010,02,20,13,02,9.80
2010,02,20,13,03,9.90
2010,02,20,13,04,10.00
2010,02,20,13,05,10.00
2010,02,20,13,06,10.10
2010,02,20,13,07,10.10
2010,02,20,13,08,10.10
2010,02,20,13,09,10.10
2010,02,20,13,10,10.10
2010,02,20,13,11,10.10
2010,02,20,13,12,10.20
2010,02,20,13,13,10.20
2010,02,20,13,14,10.20
2010,02,20,13,15,10.20
2010,02,20,13,16,10.30
2010,02,20,13,17,10.30
2010,02,20,13,18,10.30
2010,02,20,13,19,10.30
2010,02,20,13,20,10.20
2010,02,20,13,21,10.10
2010,02,20,13,22,10.10
2010,02,20,13,23,10.10
2010,02,20,13,24,10.00
2010,02,20,13,25,10.00
2010,02,20,13,26,10.00
2010,02,20,13,27,10.00
2010,02,20,13,28,10.00
2010,02,20,13,29,10.10
2010,02,20,13,30,10.20
2010,02,20,13,31,10.20
2010,02,20,13,32,10.30
2010,02,20,13,33,10.30
2010,02,20,13,34,10.30
2010,02,20,13,35,10.30
2010,02,20,13,36,10.30
2010,02,20,13,37,10.30
2010,02,20,13,38,10.30
2010,02,20,13,39,10.40
2010,02,20,13,40,10.40
2010,02,20,13,41,10.50
2010,02,20,13,42,10.60
2010,02,20,13,43,10.60
2010,02,20,13,44,10.70
2010,02,20,13,45,10.70
2010,02,20,13,46,10.70
2010,02,20,13,47,10.70
2010,02,20,13,48,10.60
2010,02,20,13,49,10.60
2010,02,20,13,50,10.50
2010,02,20,13,51,10.50
2010,02,20,13,52,10.50
2010,02,20,13,53,10.50
2010,02,20,13,54,10.50
2010,02,20,13,55,10.50
2010,02,20,13,56,10.60
2010,02,20,13,57,10.60
2010,02,20,13,58,10.60
2010,02,20,13,59,10.50
2010,02,20,14,00,10.40
2010,02,20,14,01,10.40
2010,02,20,14,02,10.30
2010,02,20,14,03,10.30
2010,02,20,14,04,10.30
2010,02,20,14,05,10.30
2010,02,20,14,06,10.30
2010,02,20,14,07,10.30
2010,02,20,14,08,10.30
2010,02,20,14,09,10.30
2010,02,20,14,10,10.30
2010,02,20,14,11,10.30
2010,02,20,14,12,10.30
2010,02,20,14,13,10.40
2010,02,20,14,14,10.40
2010,02,20,14,15,10.50
2010,02,20,14,16,10.50
2010,02,20,14,17,10.60
2010,02,20,14,18,10.70
2010,02,20,14,19,10.70
2010,02,20,14,20,10.70
2010,02,20,14,21,10.70
2010,02,20,14,22,10.70
2010,02,20,14,23,10.70
2010,02,20,14,24,10.70
2010,02,20,14,25,10.80
2010,02,20,14,26,10.80
2010,02,20,14,27,10.80
2010,02,20,14,28,10.80
2010,02,20,14,29,10.70
2010,02,20,14,30,10.70
2010,02,20,14,31,10.70
2010,02,20,14,32,10.70
2010,02,20,14,33,10.70
2010,02,20,14,34,10.80
2010,02,20,14,35,10.80
2010,02,20,14,36,10.90
2010,02,20,14,37,10.90
2010,02,20,14,38,10.90
2010,02,20,14,39,10.90
2010,02,20,14,40,10.90
2010,02,20,14,41,10.90
2010,02,20,14,42,10.80
2010,02,20,14,43,10.80
2010,02,20,14,44,10.80
2010,02,20,14,45,10.80
2010,02,20,14,46,10.90
2010,02,20,14,47,10.80
2010,02,20,14,48,10.80
2010,02,20,14,49,10.80
2010,02,20,14,50,10.80
2010,02,20,14,51,10.80
2010,02,20,14,52,10.80
2010,02,20,14,53,10.90
2010,02,20,14,54,10.90
2010,02,20,14,55,10.90
2010,02,20,14,56,10.90
2010,02,20,14,57,10.90
2010,02,20,14,58,10.90
2010,02,20,14,59,10.90
2010,02,20,15,00,11.00
2010,02,20,15,01,11.00
2010,02,20,15,02,11.00
2010,02,20,15,03,11.00
2010,02,20,15,04,11.00
2010,02,20,15,05,10.90
2010,02,20,15,06,10.90
2010,02,20,15,07,10.80
2010,02,20,15,08,10.70
2010,02,20,15,09,10.70
2010,02,20,15,10,10.70
2010,02,20,15,11,10.70
2010,02,20,15,12,10.80
2010,02,20,15,13,10.90
2010,02,20,15,14,10.90
2010,02,20,15,15,11.00
2010,02,20,15,16,11.10
2010,02,20,15,17,11.10
2010,02,20,15,18,11.20
2010,02,20,15,19,11.20
2010,02,20,15,20,11.20
2010,02,20,15,21,11.20
2010,02,20,15,22,11.20
2010,02,20,15,23,11.20
2010,02,20,15,24,11.20
2010,02,20,15,25,11.20
2010,02,20,15,26,11.20
2010,02,20,15,27,11.20
2010,02,20,15,28,11.20
2010,02,20,15,29,11.20
2010,02,20,15,30,11.20
2010,02,20,15,31,11.20
2010,02,20,15,32,11.20
2010,02,20,15,33,11.20
2010,02,20,15,34,11.20
2010,02,20,15,35,11.20
2010,02,20,15,36,11.10
2010,02,20,15,37,11.10
2010,02,20,15,38,11.10
2010,02,20,15,39,11.10
2010,02,20,15,40,11.10
2010,02,20,15,41,11.10
2010,02,20,15,42,11.00
2010,02,20,15,43,11.00
2010,02,20,15,44,11.00
2010,02,20,15,45,10.90
2010,02,20,15,46,10.90
2010,02,20,15,47,11.00
2010,02,20,15,48,11.00
2010,02,20,15,49,11.10
2010,02,20,15,50,11.10
2010,02,20,15,51,11.10
2010,02,20,15,52,11.10
2010,02,20,15,53,11.10
2010,02,20,15,54,11.10
2010,02,20,15,55,11.10
2010,02,20,15,56,11.10
2010,02,20,15,57,11.10
2010,02,20,15,58,11.10
2010,02,20,15,59,11.10
2010,02,20,16,00,11.20
2010,02,20,16,01,11.20
2010,02,20,16,02,11.20
2010,02,20,16,03,11.20
2010,02,20,16,04,11.20
2010,02,20,16,05,11.20
2010,02,20,16,06,11.20
2010,02,20,16,07,11.10
2010,02,20,16,08,11.10
2010,02,20,16,09,11.10
2010,02,20,16,10,11.10
2010,02,20,16,11,11.10
2010,02,20,16,12,11.10
2010,02,20,16,13,11.10
2010,02,20,16,14,11.10
2010,02,20,16,15,11.00
2010,02,20,16,16,11.00
2010,02,20,16,17,11.10
2010,02,20,16,18,11.10
2010,02,20,16,19,11.10
2010,02,20,16,20,11.10
2010,02,20,16,21,11.10
2010,02,20,16,22,11.10
2010,02,20,16,23,11.10
2010,02,20,16,24,11.00
2010,02,20,16,25,11.00
2010,02,20,16,26,11.00
2010,02,20,16,27,11.00
2010,02,20,16,28,11.00
2010,02,20,16,29,11.00
2010,02,20,16,30,11.00
2010,02,20,16,31,11.00
2010,02,20,16,32,11.00
2010,02,20,16,33,11.00
2010,02,20,16,34,11.00
2010,02,20,16,35,11.10
2010,02,20,16,36,11.10
2010,02,20,16,37,11.00
2010,02,20,16,38,11.00
2010,02,20,16,39,10.90
2010,02,20,16,40,10.90
2010,02,20,16,41,10.90
2010,02,20,16,42,10.90
2010,02,20,16,43,10.90
2010,02,20,16,44,10.90
2010,02,20,16,45,10.90
2010,02,20,16,46,10.80
2010,02,20,16,47,10.80
2010,02,20,16,48,10.80
2010,02,20,16,49,10.80
2010,02,20,16,50,10.80
2010,02,20,16,51,10.80
2010,02,20,16,52,10.80
2010,02,20,16,53,10.80
2010,02,20,16,54,10.90
2010,02,20,16,55,10.90
2010,02,20,16,56,10.90
2010,02,20,16,57,10.90
2010,02,20,16,58,10.90
2010,02,20,16,59,11.00
2010,02,20,17,00,11.00
2010,02,20,17,01,11.00
2010,02,20,17,02,11.00
2010,02,20,17,03,10.90
2010,02,20,17,04,10.90
2010,02,20,17,05,10.90
2010,02,20,17,06,10.90
2010,02,20,17,07,10.90
2010,02,20,17,08,10.80
2010,02,20,17,09,10.80
2010,02,20,17,10,10.80
2010,02,20,17,11,10.80
2010,02,20,17,12,10.80
2010,02,20,17,13,10.70
2010,02,20,17,14,10.70
2010,02,20,17,15,10.70
2010,02,20,17,16,10.70
2010,02,20,17,17,10.70
2010,02,20,17,18,10.70
2010,02,20,17,19,10.70
2010,02,20,17,20,10.70
2010,02,20,17,21,10.70
2010,02,20,17,22,10.60
2010,02,20,17,23,10.60
2010,02,20,17,24,10.60
2010,02,20,17,25,10.60
2010,02,20,17,26,10.60
2010,02,20,17,27,10.50
2010,02,20,17,28,10.50
2010,02,20,17,29,10.40
2010,02,20,17,30,10.40
2010,02,20,17,31,10.30
2010,02,20,17,32,10.30
2010,02,20,17,33,10.20
2010,02,20,17,34,10.20
2010,02,20,17,35,10.10
2010,02,20,17,36,10.00
2010,02,20,17,37,9.90
2010,02,20,17,38,9.90
2010,02,20,17,39,9.80
2010,02,20,17,40,9.80
2010,02,20,17,41,9.70
2010,02,20,17,42,9.70
2010,02,20,17,43,9.60
2010,02,20,17,44,9.60
2010,02,20,17,45,9.50
2010,02,20,17,46,9.50
2010,02,20,17,47,9.40
2010,02,20,17,48,9.30
2010,02,20,17,49,9.30
2010,02,20,17,50,9.20
2010,02,20,17,51,9.10
2010,02,20,17,52,9.00
2010,02,20,17,53,9.00